Weather History for KLGD - March, 2014

Change the Weather History Date:

Friday, March 21, 2014

  Actual Average Record
Temperature  
Mean Temperature 34 °F -  
Max Temperature 44 °F 52 °F 71 °F (1978)
Min Temperature 23 °F 31 °F 21 °F (1982)
Degree Days  
Heating Degree Days 32    
Moisture  
Dew Point 17 °F    
Average Humidity 56    
Maximum Humidity 69    
Minimum Humidity 31    
Precipitation  
Precipitation 0.00 in - - ()
Sea Level Pressure  
Sea Level Pressure 30.20 in    
Wind  
Wind Speed 3 mph (NNE)    
Max Wind Speed 7 mph    
Max Gust Speed -    
Visibility 10 miles    
Events      
Averages and records for this station are not official NWS values.
T = Trace of Precipitation, MM = Missing Value Source: NWS Daily Summary

Daily Weather History Graph

Daily Weather History Graph

Search for Another Location

Airport or City:

Trip Planner

Search our weather history database for the weather conditions in past years. The results will help you decide how hot, cold, wet, or windy it might be!

Date:

Astronomy

Mar. 21, 2014 Rise Set
Actual Time 6:53 AM PDT 7:05 PM PDT
Civil Twilight 6:23 AM PDT 7:35 PM PDT
Nautical Twilight 5:49 AM PDT 8:10 PM PDT
Astronomical Twilight 5:13 AM PDT 8:45 PM PDT
Moon No Moon Rise 9:35 AM PDT (3/21)
Length of Visible Light 13h 11m
Length of Day
12h 12m
Waning Gibbous, 74% of the Moon is Illuminated
Mar 21
Waning Gibbous
Mar 23
Last Quarter
Mar 30
New
Apr 7
First Quarter
Apr 15
Full

Hourly Weather History & Observations

Time (PDT) Temp. Windchill Dew Point Humidity Pressure Visibility Wind Dir Wind Speed Gust Speed Precip Events Conditions
12:15 AM 30.2 °F 25.4 °F 15.8 °F 55% 30.22 in 10.0 mi North 4.6 mph - N/A   Clear
12:35 AM 28.4 °F 23.3 °F 14.0 °F 55% 30.22 in 10.0 mi NNE 4.6 mph - N/A   Scattered Clouds
12:55 AM 28.4 °F 21.2 °F 14.0 °F 55% 30.22 in 10.0 mi NNE 6.9 mph - N/A   Mostly Cloudy
1:15 AM 26.6 °F 22.6 °F 15.8 °F 64% 30.22 in 10.0 mi East 3.5 mph - N/A   Scattered Clouds
1:35 AM 28.4 °F 24.6 °F 17.6 °F 64% 30.22 in 10.0 mi North 3.5 mph - N/A   Partly Cloudy
1:55 AM 30.2 °F 23.4 °F 17.6 °F 60% 30.22 in 10.0 mi WNW 6.9 mph - N/A   Clear
2:15 AM 28.4 °F 24.6 °F 15.8 °F 59% 30.23 in 10.0 mi South 3.5 mph - N/A   Clear
2:35 AM 28.4 °F - 15.8 °F 59% 30.22 in 10.0 mi Calm Calm - N/A   Clear
2:55 AM 28.4 °F 23.3 °F 15.8 °F 59% 30.21 in 10.0 mi South 4.6 mph - N/A   Clear
3:15 AM 26.6 °F 21.2 °F 14.0 °F 59% 30.21 in 10.0 mi ESE 4.6 mph - N/A   Clear
3:35 AM 24.8 °F 20.5 °F 14.0 °F 64% 30.21 in 10.0 mi SE 3.5 mph - N/A   Clear
3:55 AM 24.8 °F - 14.0 °F 64% 30.21 in 10.0 mi Calm Calm - N/A   Clear
4:15 AM 24.8 °F - 14.0 °F 64% 30.21 in 10.0 mi Calm Calm - N/A   Clear
4:35 AM 24.8 °F - 14.0 °F 64% 30.20 in 10.0 mi Calm Calm - N/A   Clear
4:55 AM 24.8 °F - 15.8 °F 69% 30.20 in 10.0 mi Calm Calm - N/A   Clear
5:15 AM 24.8 °F 20.5 °F 15.8 °F 69% 30.20 in 10.0 mi NW 3.5 mph - N/A   Clear
5:35 AM 23.0 °F - 14.0 °F 68% 30.20 in 10.0 mi Calm Calm - N/A   Clear
5:55 AM 23.0 °F - 12.2 °F 63% 30.20 in 10.0 mi Calm Calm - N/A   Clear
6:15 AM 23.0 °F - 14.0 °F 68% 30.20 in 10.0 mi Calm Calm - N/A   Clear
6:35 AM 23.0 °F - 12.2 °F 63% 30.20 in 10.0 mi Calm Calm - N/A   Clear
6:55 AM 24.8 °F - 14.0 °F 64% 30.20 in 10.0 mi Calm Calm - N/A   Partly Cloudy
7:15 AM 24.8 °F - 15.8 °F 69% 30.20 in 10.0 mi Calm Calm - N/A   Scattered Clouds
7:35 AM 24.8 °F - 15.8 °F 69% 30.20 in 10.0 mi Calm Calm - N/A   Scattered Clouds
7:55 AM 28.4 °F - 17.6 °F 64% 30.20 in 10.0 mi Calm Calm - N/A   Clear
8:15 AM 28.4 °F - 19.4 °F 69% 30.21 in 10.0 mi Calm Calm - N/A   Clear
8:35 AM 30.2 °F - 19.4 °F 64% 30.21 in 10.0 mi Calm Calm - N/A   Clear
8:55 AM 30.2 °F - 19.4 °F 64% 30.21 in 10.0 mi Calm Calm - N/A   Clear
9:15 AM 32.0 °F 28.7 °F 19.4 °F 60% 30.21 in 10.0 mi North 3.5 mph - N/A   Clear
9:35 AM 33.8 °F 30.8 °F 19.4 °F 56% 30.21 in 10.0 mi North 3.5 mph - N/A   Clear
9:55 AM 33.8 °F 30.8 °F 19.4 °F 56% 30.21 in 10.0 mi NNE 3.5 mph - N/A   Clear
10:15 AM 35.6 °F - 19.4 °F 52% 30.21 in 10.0 mi Calm Calm - N/A   Clear
10:35 AM 35.6 °F - 21.2 °F 56% 30.20 in 10.0 mi Calm Calm - N/A   Clear
10:55 AM 37.4 °F 34.9 °F 19.4 °F 48% 30.20 in 10.0 mi NNE 3.5 mph - N/A   Clear
11:15 AM 39.2 °F 37.0 °F 21.2 °F 49% 30.20 in 10.0 mi ENE 3.5 mph - N/A   Clear
11:35 AM 39.2 °F - 19.4 °F 45% 30.19 in 10.0 mi Calm Calm - N/A   Clear
11:55 AM 39.2 °F - 19.4 °F 45% 30.19 in 10.0 mi Calm Calm - N/A   Clear
12:15 PM 41.0 °F 38.0 °F 21.2 °F 45% 30.18 in 10.0 mi East 4.6 mph - N/A   Clear
12:35 PM 41.0 °F - 19.4 °F 42% 30.17 in 10.0 mi Calm Calm - N/A   Clear
12:55 PM 42.8 °F 40.1 °F 19.4 °F 39% 30.17 in 10.0 mi NW 4.6 mph - N/A   Clear
1:15 PM 42.8 °F 41.1 °F 17.6 °F 36% 30.16 in 10.0 mi NE 3.5 mph - N/A   Clear
1:35 PM 42.8 °F - 17.6 °F 36% 30.15 in 10.0 mi Calm Calm - N/A   Clear
1:55 PM 44.6 °F 42.2 °F 17.6 °F 34% 30.14 in 10.0 mi NNE 4.6 mph - N/A   Clear
2:15 PM 44.6 °F 43.1 °F 15.8 °F 31% 30.14 in 10.0 mi NNW 3.5 mph - N/A   Clear
2:35 PM 44.6 °F 43.1 °F 15.8 °F 31% 30.13 in 10.0 mi WSW 3.5 mph - N/A   Clear